When you browse on this site, cookies collect data to enhance your experience and personalize the content and advertising you see.
Visit our Privacy Policy to learn more. By continuing to use the site, you agree to this use of cookies and data.
  • în România
  • Lista ţărilor
  • Pe 7 zile
  • Temperatura apei
  • Hartă satelitară
  • Meteo pe hartă
  • Widget-uri
  • user-avatar
    Intrare

    Meteo pe oră la Ozorków

    Astăzi, 21 Martie, Joi

    Timp Temperatura Precipitaţii Vânt Presiune Umiditate
    00:00 +5°C° 0 mm 4 m/s 762 mmHg 60%
    01:00 +5°C° 0 mm 4 m/s 762 mmHg 61%
    02:00 +5°C° 0 mm 4 m/s 762 mmHg 64%
    03:00 +5°C° 0 mm 4 m/s 762 mmHg 67%
    04:00 +5°C° 0 mm 4 m/s 762 mmHg 70%
    05:00 +5°C° 0 mm 4 m/s 762 mmHg 74%
    06:00 +5°C° 0 mm 4 m/s 762 mmHg 77%
    07:00 +5°C° 0 mm 4 m/s 762 mmHg 80%
    08:00 +6°C° 0 mm 4 m/s 762 mmHg 80%
    09:00 +7°C° 0 mm 4 m/s 762 mmHg 80%
    10:00 +8°C° 0 mm 4 m/s 763 mmHg 79%
    11:00 +8°C° 0 mm 4 m/s 762 mmHg 78%
    12:00 +8°C° 0 mm 4 m/s 762 mmHg 76%
    13:00 +10°C° 0 mm 4 m/s 762 mmHg 74%
    14:00 +9°C° 0 mm 5 m/s 762 mmHg 73%
    15:00 +9°C° 0 mm 5 m/s 762 mmHg 73%
    16:00 +10°C° 0 mm 5 m/s 761 mmHg 73%
    17:00 +9°C° 0 mm 5 m/s 761 mmHg 76%
    18:00 +10°C° 0 mm 4 m/s 761 mmHg 79%
    19:00 +8°C° 0 mm 4 m/s 761 mmHg 82%
    20:00 +8°C° 0 mm 4 m/s 761 mmHg 84%
    21:00 +9°C° 0 mm 3 m/s 761 mmHg 87%
    22:00 +8°C° 0 mm 3 m/s 761 mmHg 89%
    23:00 +7°C° 0 mm 4 m/s 761 mmHg 89%

    Mâine, 22 Martie, Vineri

    Timp Temperatura Precipitaţii Vânt Presiune Umiditate
    00:00 +8°C° 0 mm 4 m/s 762 mmHg 89%
    01:00 +8°C° 0 mm 4 m/s 762 mmHg 88%
    02:00 +7°C° 0 mm 4 m/s 762 mmHg 90%
    03:00 +7°C° 0 mm 4 m/s 761 mmHg 92%
    04:00 +8°C° 0 mm 3 m/s 761 mmHg 94%
    05:00 +8°C° 0 mm 3 m/s 762 mmHg 94%
    06:00 +8°C° 0 mm 3 m/s 762 mmHg 94%
    07:00 +8°C° 0 mm 3 m/s 762 mmHg 94%
    08:00 +9°C° 0 mm 3 m/s 762 mmHg 89%
    09:00 +10°C° 0 mm 3 m/s 763 mmHg 83%
    10:00 +11°C° 0 mm 3 m/s 763 mmHg 77%
    11:00 +12°C° 0 mm 2 m/s 763 mmHg 74%
    12:00 +12°C° 0 mm 1 m/s 763 mmHg 71%
    13:00 +13°C° 0 mm 1 m/s 763 mmHg 68%
    14:00 +13°C° 0 mm 1 m/s 763 mmHg 64%
    15:00 +14°C° 0 mm 1 m/s 762 mmHg 60%
    16:00 +14°C° 0 mm 1 m/s 762 mmHg 57%
    17:00 +13°C° 0 mm 1 m/s 762 mmHg 61%
    18:00 +12°C° 0 mm 1 m/s 762 mmHg 66%
    19:00 +11°C° 0 mm 1 m/s 762 mmHg 71%
    20:00 +10°C° 0 mm 1 m/s 762 mmHg 74%
    21:00 +10°C° 0 mm 1 m/s 762 mmHg 77%
    22:00 +9°C° 0 mm 1 m/s 762 mmHg 80%
    23:00 +9°C° 0 mm 1 m/s 762 mmHg 82%

    Poimâine, 23 Martie, Sâmbătă

    Timp Temperatura Precipitaţii Vânt Presiune Umiditate
    00:00 +8°C° 0 mm 1 m/s 761 mmHg 85%
    01:00 +8°C° 0 mm 1 m/s 761 mmHg 88%
    02:00 +6°C° 0 mm 2 m/s 761 mmHg 89%
    03:00 +6°C° 0 mm 2 m/s 760 mmHg 89%
    04:00 +6°C° 0 mm 2 m/s 760 mmHg 90%
    05:00 +6°C° 0 mm 2 m/s 760 mmHg 89%
    06:00 +6°C° 0 mm 2 m/s 760 mmHg 88%
    07:00 +6°C° 0 mm 2 m/s 759 mmHg 87%
    08:00 +8°C° 0 mm 2 m/s 759 mmHg 81%
    09:00 +10°C° 0 mm 3 m/s 759 mmHg 75%
    10:00 +12°C° 0 mm 3 m/s 759 mmHg 69%
    11:00 +13°C° 0 mm 3 m/s 758 mmHg 65%
    12:00 +14°C° 0 mm 3 m/s 758 mmHg 61%
    13:00 +17°C° 0 mm 3 m/s 757 mmHg 57%
    14:00 +17°C° 0 mm 2 m/s 757 mmHg 56%
    15:00 +17°C° 0 mm 2 m/s 757 mmHg 55%
    16:00 +18°C° 0 mm 2 m/s 756 mmHg 55%
    17:00 +16°C° 0 mm 2 m/s 756 mmHg 60%
    18:00 +15°C° 0 mm 2 m/s 756 mmHg 65%
    19:00 +14°C° 0 mm 2 m/s 756 mmHg 71%
    20:00 +13°C° 0 mm 2 m/s 757 mmHg 74%
    21:00 +12°C° 0 mm 3 m/s 757 mmHg 78%
    22:00 +11°C° 0 mm 3 m/s 757 mmHg 82%
    23:00 +11°C° 0 mm 4 m/s 757 mmHg 82%

    24 Martie, Duminică

    Timp Temperatura Precipitaţii Vânt Presiune Umiditate
    00:00 +10°C° 0 mm 4 m/s 757 mmHg 81%
    01:00 +8°C° 0 mm 5 m/s 758 mmHg 81%
    02:00 +7°C° 0 mm 5 m/s 758 mmHg 76%
    03:00 +6°C° 0 mm 4 m/s 758 mmHg 71%
    04:00 +5°C° 0 mm 4 m/s 758 mmHg 66%
    05:00 +5°C° 0 mm 4 m/s 758 mmHg 67%
    06:00 +4°C° 0 mm 4 m/s 759 mmHg 67%
    07:00 +4°C° 0 mm 4 m/s 759 mmHg 68%
    08:00 +5°C° 0 mm 4 m/s 759 mmHg 64%
    09:00 +7°C° 0 mm 3 m/s 759 mmHg 61%
    10:00 +8°C° 0 mm 3 m/s 759 mmHg 57%
    11:00 +9°C° 0 mm 3 m/s 759 mmHg 53%
    12:00 +9°C° 0 mm 2 m/s 758 mmHg 48%
    13:00 +10°C° 0 mm 2 m/s 758 mmHg 43%
    14:00 +10°C° 0 mm 2 m/s 757 mmHg 42%
    15:00 +12°C° 0 mm 2 m/s 757 mmHg 41%
    16:00 +12°C° 0 mm 2 m/s 756 mmHg 40%
    17:00 +10°C° 0 mm 2 m/s 756 mmHg 43%
    18:00 +9°C° 0 mm 2 m/s 755 mmHg 46%
    19:00 +8°C° 0 mm 2 m/s 755 mmHg 49%
    20:00 +8°C° 0 mm 2 m/s 755 mmHg 50%
    21:00 +8°C° 0 mm 2 m/s 755 mmHg 51%
    22:00 +7°C° 0 mm 2 m/s 754 mmHg 52%
    23:00 +8°C° 0 mm 1 m/s 754 mmHg 53%

    25 Martie, Luni

    Timp Temperatura Precipitaţii Vânt Presiune Umiditate
    00:00 +7°C° 0 mm 1 m/s 753 mmHg 54%
    01:00 +6°C° 0 mm 0 m/s 753 mmHg 55%
    02:00 +6°C° 0 mm 1 m/s 753 mmHg 58%
    03:00 +6°C° 0 mm 1 m/s 752 mmHg 60%
    04:00 +4°C° 0 mm 2 m/s 752 mmHg 62%
    05:00 +3°C° 0 mm 3 m/s 752 mmHg 63%
    06:00 +3°C° 0 mm 3 m/s 752 mmHg 64%
    07:00 +3°C° 0 mm 4 m/s 752 mmHg 65%
    08:00 +3°C° 0 mm 5 m/s 751 mmHg 60%
    09:00 +5°C° 0 mm 5 m/s 751 mmHg 54%
    10:00 +5°C° 0 mm 6 m/s 751 mmHg 48%
    11:00 +6°C° 0 mm 7 m/s 750 mmHg 48%
    12:00 +6°C° 0 mm 8 m/s 749 mmHg 47%
    13:00 +7°C° 0 mm 8 m/s 748 mmHg 46%
    14:00 +6°C° 0.4 mm 9 m/s 748 mmHg 53%
    15:00 +5°C° 0.4 mm 10 m/s 747 mmHg 60%
    16:00 +3°C° 0.4 mm 10 m/s 747 mmHg 68%
    17:00 +2°C° 0.1 mm 9 m/s 747 mmHg 65%
    18:00 +3°C° 0.1 mm 7 m/s 747 mmHg 63%
    19:00 +2°C° 0.1 mm 5 m/s 747 mmHg 60%
    20:00 +2°C° 0 mm 6 m/s 747 mmHg 62%
    21:00 0°C° 0 mm 7 m/s 747 mmHg 63%
    22:00 0°C° 0 mm 8 m/s 746 mmHg 65%
    23:00 0°C° 0 mm 8 m/s 746 mmHg 67%

    26 Martie, Marţi

    Timp Temperatura Precipitaţii Vânt Presiune Umiditate
    00:00 -1°C° 0 mm 8 m/s 746 mmHg 69%
    01:00 -1°C° 0 mm 8 m/s 745 mmHg 71%
    02:00 -1°C° 0.1 mm 8 m/s 745 mmHg 71%
    03:00 -1°C° 0.1 mm 8 m/s 745 mmHg 72%
    04:00 -3°C° 0.1 mm 9 m/s 745 mmHg 72%
    05:00 -1°C° 0.2 mm 8 m/s 745 mmHg 70%
    06:00 -1°C° 0.2 mm 8 m/s 745 mmHg 68%
    07:00 -1°C° 0.2 mm 8 m/s 746 mmHg 66%
    08:00 -1°C° 0.1 mm 8 m/s 746 mmHg 68%
    09:00 0°C° 0.1 mm 8 m/s 746 mmHg 69%
    10:00 0°C° 0.1 mm 8 m/s 746 mmHg 70%
    11:00 +1°C° 0.5 mm 8 m/s 747 mmHg 70%
    12:00 +1°C° 0.5 mm 9 m/s 747 mmHg 71%
    13:00 +1°C° 0.5 mm 9 m/s 748 mmHg 71%
    14:00 +1°C° 0.3 mm 9 m/s 748 mmHg 69%
    15:00 +1°C° 0.3 mm 9 m/s 749 mmHg 67%
    16:00 +2°C° 0.3 mm 9 m/s 750 mmHg 66%
    17:00 +1°C° 0 mm 8 m/s 751 mmHg 70%
    18:00 0°C° 0 mm 7 m/s 752 mmHg 74%
    19:00 +1°C° 0 mm 6 m/s 753 mmHg 79%
    20:00 +1°C° 0 mm 6 m/s 753 mmHg 79%
    21:00 +1°C° 0 mm 6 m/s 754 mmHg 79%
    22:00 +1°C° 0 mm 6 m/s 754 mmHg 80%
    23:00 -1°C° 0 mm 6 m/s 755 mmHg 81%
    Arată mai mult